| time (UTC) | temp F | wind direction | speed knots | gust knots | rain 1hr in | rain 24hr in | rain mn in | humidity % | barometer mb |
| 20260505051104 | 61 | 128 | 0.0 | 0.0 | 0.00 | 0.00 | 0.00 | 73 | 1000.5 |
| 20260505050601 | 61 | 128 | 0.0 | 0.0 | 0.00 | 0.00 | 0.00 | 71 | 1000.6 |
| 20260505041550 | 63 | 128 | 0.0 | 1.7 | 0.00 | 0.00 | 0.00 | 65 | 1000.9 |
| 20260505041048 | 63 | 128 | 0.0 | 1.7 | 0.00 | 0.00 | 0.00 | 65 | 1000.8 |
| 20260505040546 | 63 | 128 | 0.0 | 1.7 | 0.00 | 0.00 | 0.00 | 66 | 1000.7 |
| 20260505040048 | 63 | 128 | 0.0 | 1.7 | 0.00 | 0.00 | 0.00 | 64 | 1000.8 |
| 20260505035545 | 63 | 127 | 0.0 | 0.9 | 0.00 | 0.00 | 0.00 | 64 | 1000.6 |
| 20260505035042 | 63 | 127 | 0.0 | 1.7 | 0.00 | 0.00 | 0.00 | 65 | 1000.6 |
| 20260505034542 | 63 | 127 | 0.0 | 1.7 | 0.00 | 0.00 | 0.00 | 64 | 1000.6 |
| 20260505034043 | 63 | 127 | 0.0 | 0.9 | 0.00 | 0.00 | 0.00 | 64 | 1000.6 |
| 20260505033542 | 63 | 127 | 0.0 | 0.9 | 0.00 | 0.00 | 0.00 | 64 | 1000.6 |
| 20260505033044 | 64 | 128 | 0.0 | 0.9 | 0.00 | 0.00 | 0.00 | 65 | 1000.6 |
| 20260505032542 | 64 | 128 | 0.0 | 0.9 | 0.00 | 0.00 | 0.00 | 66 | 1000.6 |
| 20260505032042 | 64 | 128 | 0.0 | 0.9 | 0.00 | 0.00 | 0.00 | 65 | 1000.6 |
| 20260505031544 | 65 | 128 | 0.0 | 0.9 | 0.00 | 0.00 | 0.00 | 63 | 1000.7 |
| 20260505031310 | 65 | 128 | 0.0 | 0.9 | 0.00 | 0.00 | 0.00 | 61 | 1000.7 |
| 20260505030540 | 65 | 128 | 0.0 | 0.9 | 0.00 | 0.00 | 0.00 | 60 | 1000.6 |
| 20260505030309 | 66 | 128 | 0.0 | 0.9 | 0.00 | 0.00 | 0.00 | 61 | 1000.5 |
| 20260505025540 | 66 | 128 | 0.0 | 0.9 | 0.00 | 0.00 | 0.00 | 59 | 1000.5 |
| 20260505025310 | 67 | 128 | 0.0 | 0.9 | 0.00 | 0.00 | 0.00 | 57 | 1000.4 |
| 20260505024809 | 67 | 128 | 0.0 | 1.7 | 0.00 | 0.00 | 0.00 | 56 | 1000.5 |
| 20260505024041 | 67 | 128 | 0.0 | 1.7 | 0.00 | 0.00 | 0.00 | 56 | 1000.4 |
| 20260505023539 | 67 | 128 | 0.0 | 1.7 | 0.00 | 0.00 | 0.00 | 54 | 1000.4 |
| 20260505023040 | 67 | 128 | 0.0 | 2.6 | 0.00 | 0.00 | 0.00 | 54 | 1000.5 |
| 20260505022534 | 67 | 128 | 0.0 | 2.6 | 0.00 | 0.00 | 0.00 | 54 | 1000.4 |
| 20260505022028 | 67 | 172 | 0.0 | 2.6 | 0.00 | 0.00 | 0.00 | 54 | 1000.5 |
| 20260505021521 | 67 | 232 | 0.0 | 1.7 | 0.00 | 0.00 | 0.00 | 55 | 1000.5 |
| 20260505021014 | 66 | 228 | 0.9 | 2.6 | 0.00 | 0.00 | 0.00 | 55 | 1000.5 |
| 20260505020508 | 66 | 228 | 0.0 | 2.6 | 0.00 | 0.00 | 0.00 | 56 | 1000.5 |
| 20260505020004 | 66 | 175 | 0.0 | 0.9 | 0.00 | 0.00 | 0.00 | 60 | 1000.4 |
| 20260505015456 | 66 | 175 | 0.0 | 0.9 | 0.00 | 0.00 | 0.00 | 59 | 1000.3 |
| 20260505014951 | 66 | 175 | 0.0 | 0.9 | 0.00 | 0.00 | 0.00 | 57 | 1000.1 |
| 20260505014444 | 67 | 175 | 0.0 | 1.7 | 0.00 | 0.00 | 0.00 | 58 | 1000.2 |
| 20260505013939 | 67 | 175 | 0.0 | 1.7 | 0.00 | 0.00 | 0.00 | 60 | 1000.2 |
| 20260505013432 | 68 | 175 | 0.0 | 1.7 | 0.00 | 0.00 | 0.00 | 59 | 1000.1 |
| 20260505012931 | 68 | 175 | 0.0 | 0.9 | 0.00 | 0.00 | 0.00 | 56 | 1000.1 |
| 20260505012430 | 69 | 175 | 0.0 | 0.9 | 0.00 | 0.00 | 0.00 | 56 | 999.9 |
| 20260505012202 | 69 | 175 | 0.0 | 0.9 | 0.00 | 0.00 | 0.00 | 53 | 999.9 |
| 20260505011432 | 70 | 175 | 0.0 | 0.9 | 0.00 | 0.00 | 0.00 | 52 | 999.9 |
| 20260505010929 | 71 | 175 | 0.0 | 0.9 | 0.00 | 0.00 | 0.00 | 50 | 999.8 |
| 20260505010428 | 71 | 175 | 0.9 | 2.6 | 0.00 | 0.00 | 0.00 | 48 | 999.7 |
| 20260505005928 | 71 | 175 | 0.9 | 2.6 | 0.00 | 0.00 | 0.00 | 46 | 999.6 |
| 20260505005659 | 71 | 148 | 0.0 | 1.7 | 0.00 | 0.00 | 0.00 | 46 | 999.7 |
| 20260505004929 | 71 | 148 | 0.0 | 1.7 | 0.00 | 0.00 | 0.00 | 46 | 999.7 |
| 20260505004428 | 71 | 145 | 0.9 | 3.5 | 0.00 | 0.00 | 0.00 | 46 | 999.7 |
| 20260505003928 | 71 | 145 | 0.9 | 3.5 | 0.00 | 0.00 | 0.00 | 45 | 999.6 |
| 20260505003700 | 72 | 198 | 0.0 | 1.7 | 0.00 | 0.00 | 0.00 | 45 | 999.6 |
| 20260505002929 | 72 | 133 | 0.0 | 1.7 | 0.00 | 0.00 | 0.00 | 45 | 999.6 |
| 20260505002426 | 72 | 133 | 0.9 | 2.6 | 0.00 | 0.00 | 0.00 | 45 | 999.6 |
| 20260505001925 | 72 | 133 | 0.9 | 4.3 | 0.00 | 0.00 | 0.00 | 44 | 999.5 |
| 20260505001423 | 73 | 133 | 0.9 | 4.3 | 0.00 | 0.00 | 0.00 | 43 | 999.5 |
| 20260505000922 | 73 | 205 | 0.9 | 4.3 | 0.00 | 0.00 | 0.00 | 44 | 999.5 |
| 20260505000421 | 73 | 197 | 0.9 | 1.7 | 0.00 | 0.00 | 0.00 | 43 | 999.4 |
| 20260504235917 | 73 | 194 | 0.9 | 2.6 | 0.00 | 0.00 | 0.00 | 43 | 999.5 |
| 20260504235412 | 73 | 211 | 0.9 | 3.5 | 0.00 | 0.00 | 0.00 | 43 | 999.5 |
| 20260504234906 | 73 | 191 | 0.9 | 3.5 | 0.00 | 0.00 | 0.00 | 44 | 999.4 |
| 20260504234359 | 73 | 192 | 0.9 | 3.5 | 0.00 | 0.00 | 0.00 | 43 | 999.4 |
| 20260504233852 | 73 | 195 | 0.9 | 3.5 | 0.00 | 0.00 | 0.00 | 42 | 999.4 |
| 20260504233347 | 73 | 183 | 1.7 | 4.3 | 0.00 | 0.00 | 0.00 | 41 | 999.4 |
| 20260504232840 | 73 | 144 | 1.7 | 5.2 | 0.00 | 0.00 | 0.00 | 41 | 999.4 |
| 20260504232336 | 74 | 213 | 1.7 | 5.2 | 0.00 | 0.00 | 0.00 | 41 | 999.3 |
| 20260504232059 | 74 | 215 | 1.7 | 5.2 | 0.00 | 0.00 | 0.00 | 41 | 999.2 |
| 20260504231323 | 74 | 163 | 1.7 | 6.1 | 0.00 | 0.00 | 0.00 | 41 | 999.2 |
| 20260504230816 | 74 | 123 | 0.9 | 6.1 | 0.00 | 0.00 | 0.00 | 40 | 999.2 |
| 20260504230310 | 74 | 137 | 1.7 | 3.5 | 0.00 | 0.00 | 0.00 | 40 | 999.1 |
| 20260504225804 | 74 | 217 | 1.7 | 5.2 | 0.00 | 0.00 | 0.00 | 39 | 999.2 |
| 20260504225258 | 74 | 213 | 2.6 | 7.0 | 0.00 | 0.00 | 0.00 | 40 | 999.1 |
| 20260504224754 | 75 | 219 | 1.7 | 7.0 | 0.00 | 0.00 | 0.00 | 39 | 999.2 |
| 20260504224246 | 75 | 235 | 1.7 | 5.2 | 0.00 | 0.00 | 0.00 | 39 | 999.1 |
| 20260504224011 | 75 | 138 | 1.7 | 4.3 | 0.00 | 0.00 | 0.00 | 39 | 999.1 |
| 20260504223235 | 74 | 215 | 0.9 | 4.3 | 0.00 | 0.00 | 0.00 | 40 | 999.2 |
| 20260504222730 | 75 | 211 | 0.9 | 4.3 | 0.00 | 0.00 | 0.00 | 40 | 999.2 |
| 20260504222224 | 75 | 236 | 1.7 | 4.3 | 0.00 | 0.00 | 0.00 | 38 | 999.3 |
| 20260504221717 | 75 | 138 | 2.6 | 7.0 | 0.00 | 0.00 | 0.00 | 38 | 999.3 |
| 20260504221211 | 76 | 215 | 1.7 | 7.0 | 0.00 | 0.00 | 0.00 | 38 | 999.2 |
| 20260504220711 | 76 | 217 | 1.7 | 4.3 | 0.00 | 0.00 | 0.00 | 39 | 999.0 |
| 20260504220444 | 76 | 216 | 1.7 | 4.3 | 0.00 | 0.00 | 0.00 | 38 | 998.9 |
| 20260504215711 | 76 | 129 | 1.7 | 6.1 | 0.00 | 0.00 | 0.00 | 37 | 999.0 |
| 20260504215213 | 76 | 213 | 1.7 | 6.1 | 0.00 | 0.00 | 0.00 | 38 | 999.1 |
| 20260504214712 | 76 | 124 | 1.7 | 5.2 | 0.00 | 0.00 | 0.00 | 37 | 999.0 |
| 20260504214214 | 76 | 217 | 1.7 | 5.2 | 0.00 | 0.00 | 0.00 | 37 | 999.0 |
| 20260504213712 | 76 | 174 | 1.7 | 5.2 | 0.00 | 0.00 | 0.00 | 36 | 999.0 |
| 20260504213214 | 76 | 123 | 1.7 | 5.2 | 0.00 | 0.00 | 0.00 | 38 | 999.0 |
| 20260504212709 | 76 | 196 | 1.7 | 7.0 | 0.00 | 0.00 | 0.00 | 36 | 999.1 |
| 20260504212208 | 76 | 198 | 1.7 | 8.7 | 0.00 | 0.00 | 0.00 | 36 | 999.0 |
| 20260504211708 | 76 | 228 | 2.6 | 8.7 | 0.00 | 0.00 | 0.00 | 36 | 999.0 |
| 20260504211207 | 76 | 185 | 1.7 | 4.3 | 0.00 | 0.00 | 0.00 | 37 | 999.0 |
| 20260504210709 | 76 | 211 | 1.7 | 4.3 | 0.00 | 0.00 | 0.00 | 36 | 998.9 |
| 20260504210207 | 76 | 208 | 1.7 | 4.3 | 0.00 | 0.00 | 0.00 | 39 | 999.0 |
| 20260504205940 | 76 | 220 | 1.7 | 4.3 | 0.00 | 0.00 | 0.00 | 36 | 998.9 |
| 20260504205204 | 76 | 223 | 1.7 | 4.3 | 0.00 | 0.00 | 0.00 | 38 | 999.0 |
| 20260504204705 | 76 | 110 | 1.7 | 6.1 | 0.00 | 0.00 | 0.00 | 37 | 999.0 |
| 20260504204205 | 76 | 96 | 1.7 | 6.1 | 0.00 | 0.00 | 0.00 | 36 | 999.1 |
| 20260504203705 | 75 | 213 | 1.7 | 5.2 | 0.00 | 0.00 | 0.00 | 38 | 999.2 |
| 20260504203435 | 75 | 213 | 1.7 | 5.2 | 0.00 | 0.00 | 0.00 | 41 | 999.3 |
| 20260504202704 | 76 | 219 | 1.7 | 6.1 | 0.00 | 0.00 | 0.00 | 37 | 999.5 |
| 20260504202205 | 76 | 220 | 1.7 | 6.1 | 0.00 | 0.00 | 0.00 | 36 | 999.5 |
| 20260504201703 | 76 | 205 | 1.7 | 4.3 | 0.00 | 0.00 | 0.00 | 37 | 999.4 |
| 20260504201205 | 76 | 161 | 1.7 | 5.2 | 0.00 | 0.00 | 0.00 | 37 | 999.5 |
| 20260504200703 | 76 | 216 | 0.9 | 5.2 | 0.00 | 0.00 | 0.00 | 38 | 999.6 |
| 20260504200203 | 76 | 202 | 0.9 | 4.3 | 0.00 | 0.00 | 0.00 | 38 | 999.6 |
| 20260504195709 | 76 | 170 | 1.7 | 4.3 | 0.00 | 0.00 | 0.00 | 38 | 999.8 |
| 20260504195434 | 76 | 216 | 1.7 | 4.3 | 0.00 | 0.00 | 0.00 | 37 | 999.8 |
| 20260504194705 | 75 | 208 | 1.7 | 3.5 | 0.00 | 0.00 | 0.00 | 39 | 999.8 |
| 20260504194203 | 75 | 220 | 1.7 | 6.1 | 0.00 | 0.00 | 0.00 | 38 | 999.9 |
| 20260504193705 | 75 | 220 | 1.7 | 6.1 | 0.00 | 0.00 | 0.00 | 38 | 1000.0 |
| 20260504193435 | 75 | 222 | 1.7 | 5.2 | 0.00 | 0.00 | 0.00 | 37 | 1000.0 |
| 20260504192936 | 75 | 201 | 1.7 | 7.8 | 0.00 | 0.00 | 0.00 | 37 | 1000.2 |
| 20260504192201 | 75 | 216 | 1.7 | 7.8 | 0.00 | 0.00 | 0.00 | 38 | 1000.3 |
| 20260504191658 | 75 | 158 | 1.7 | 5.2 | 0.00 | 0.00 | 0.00 | 38 | 1000.3 |
| 20260504191153 | 75 | 212 | 1.7 | 5.2 | 0.00 | 0.00 | 0.00 | 38 | 1000.4 |
| 20260504190917 | 74 | 216 | 1.7 | 5.2 | 0.00 | 0.00 | 0.00 | 37 | 1000.4 |
| 20260504190141 | 75 | 213 | 1.7 | 4.3 | 0.00 | 0.00 | 0.00 | 38 | 1000.5 |
| 20260504185635 | 75 | 220 | 1.7 | 4.3 | 0.00 | 0.00 | 0.00 | 38 | 1000.8 |
| 20260504185128 | 74 | 221 | 1.7 | 4.3 | 0.00 | 0.00 | 0.00 | 39 | 1000.7 |
| 20260504184856 | 74 | 223 | 1.7 | 3.5 | 0.00 | 0.00 | 0.00 | 40 | 1000.8 |
| 20260504184117 | 74 | 215 | 1.7 | 4.3 | 0.00 | 0.00 | 0.00 | 41 | 1001.1 |
| 20260504183841 | 73 | 216 | 0.9 | 4.3 | 0.00 | 0.00 | 0.00 | 40 | 1001.1 |
| 20260504183104 | 73 | 153 | 1.7 | 7.8 | 0.00 | 0.00 | 0.00 | 38 | 1001.1 |
| 20260504182559 | 73 | 214 | 2.6 | 7.8 | 0.00 | 0.00 | 0.00 | 38 | 1001.2 |
| 20260504182052 | 73 | 122 | 1.7 | 5.2 | 0.00 | 0.00 | 0.00 | 39 | 1001.1 |
| 20260504181547 | 73 | 225 | 1.7 | 4.3 | 0.00 | 0.00 | 0.00 | 38 | 1001.3 |
| 20260504181040 | 73 | 213 | 1.7 | 8.7 | 0.00 | 0.00 | 0.00 | 40 | 1001.4 |
| 20260504180536 | 72 | 215 | 1.7 | 8.7 | 0.00 | 0.00 | 0.00 | 39 | 1001.5 |
| 20260504180302 | 72 | 228 | 1.7 | 7.0 | 0.00 | 0.00 | 0.00 | 40 | 1001.6 |
| 20260504175522 | 72 | 220 | 2.6 | 6.1 | 0.00 | 0.00 | 0.00 | 40 | 1001.7 |
| 20260504175018 | 72 | 200 | 1.7 | 5.2 | 0.00 | 0.00 | 0.00 | 41 | 1001.8 |
| 20260504174511 | 72 | 217 | 1.7 | 5.2 | 0.00 | 0.00 | 0.00 | 41 | 1001.7 |
| 20260504174004 | 71 | 211 | 1.7 | 5.2 | 0.00 | 0.00 | 0.00 | 42 | 1001.7 |
| 20260504173459 | 71 | 116 | 2.6 | 5.2 | 0.00 | 0.00 | 0.00 | 40 | 1001.7 |
| 20260504172951 | 71 | 215 | 2.6 | 5.2 | 0.00 | 0.00 | 0.00 | 40 | 1002.0 |
| 20260504172444 | 71 | 215 | 1.7 | 5.2 | 0.00 | 0.00 | 0.00 | 41 | 1002.0 |
| 20260504172209 | 71 | 319 | 1.7 | 4.3 | 0.00 | 0.00 | 0.00 | 41 | 1002.0 |
| 20260504171434 | 71 | 202 | 1.7 | 4.3 | 0.00 | 0.00 | 0.00 | 41 | 1002.0 |
| 20260504170926 | 70 | 213 | 1.7 | 6.1 | 0.00 | 0.00 | 0.00 | 42 | 1002.1 |
| 20260504170420 | 70 | 213 | 1.7 | 6.1 | 0.00 | 0.00 | 0.00 | 42 | 1002.2 |
| 20260504160308 | 67 | 216 | 1.7 | 6.1 | 0.00 | 0.00 | 0.00 | 42 | 1003.1 |
| 20260504150703 | 65 | 125 | 1.7 | 5.2 | 0.00 | 0.00 | 0.00 | 44 | 1003.6 |
| 20260504150157 | 65 | 222 | 1.7 | 5.2 | 0.00 | 0.00 | 0.00 | 45 | 1003.6 |
| 20260504141115 | 62 | 117 | 0.9 | 3.5 | 0.00 | 0.00 | 0.00 | 54 | 1003.6 |
| 20260504140613 | 61 | 196 | 0.9 | 3.5 | 0.00 | 0.00 | 0.00 | 51 | 1003.6 |
| 20260504140345 | 61 | 196 | 0.9 | 3.5 | 0.00 | 0.00 | 0.00 | 49 | 1003.7 |
| 20260504130605 | 56 | 211 | 1.7 | 4.3 | 0.00 | 0.00 | 0.00 | 61 | 1004.0 |
| 20260504130105 | 56 | 211 | 0.9 | 4.3 | 0.00 | 0.00 | 0.00 | 58 | 1004.2 |
| 20260504110529 | 46 | 79 | 0.0 | 0.0 | 0.00 | 0.00 | 0.00 | 84 | 1004.7 |
| 20260504100415 | 46 | 242 | 0.0 | 0.0 | 0.00 | 0.00 | 0.00 | 84 | 1004.5 |
| 20260504081709 | 46 | 242 | 0.0 | 0.0 | 0.00 | 0.00 | 0.00 | 84 | 1004.9 |
| 20260504081205 | 46 | 242 | 0.0 | 0.0 | 0.00 | 0.00 | 0.00 | 84 | 1004.8 |
| 20260504080657 | 46 | 242 | 0.0 | 0.0 | 0.00 | 0.00 | 0.00 | 84 | 1004.9 |
| 20260504080152 | 46 | 242 | 0.0 | 0.0 | 0.00 | 0.00 | 0.00 | 84 | 1004.7 |